Location: Lampaul
(48.4474°N, 4.7596°W)
Time: 21:25:29
(UTC+00:00)

Daily predictions for brighter satellites

Satellite Brightness Start Highest point End
(mag) Time Altitude Azimuth Time Altitude Azimuth Time Altitude Azimuth
CREW DRAGON DEMO-1 DEB 2.9 18:37:54 10° WNW 18:40:55 67° NNE 18:43:57 10° E
Okean 2 4.4 18:38:23 10° NNW 18:42:27 52° W 18:46:29 10° S
CZ-4B R/B 4.0 18:39:30 10° N 18:42:29 27° WNW 18:45:28 10° SW
Cosmos 1536 Rocket 4.3 18:39:27 10° N 18:43:32 34° ENE 18:47:36 10° SE
Cosmos 1125 Rocket 4.3 18:41:59 10° SSE 18:46:32 30° E 18:51:06 10° NE
SJ-6B 4.5 18:48:54 10° E 18:51:09 15° ENE 18:53:25 10° NNE
CZ-2D R/B 3.7 18:49:14 10° S 18:53:05 67° WSW 18:56:58 10° NNW
CZ-4 R/B 1.6 18:48:57 10° SSE 18:53:10 83° WSW 18:57:21 10° NNW
USA 238 DEB 3.9 18:45:57 10° NW 18:53:11 85° NE 19:00:42 10° SE
USA 238 3.9 18:46:03 10° NW 18:53:17 84° NE 19:00:48 10° SE
Cosmos 2150 Rocket 4.3 18:48:08 10° S 18:53:19 49° ESE 18:58:34 10° NNE
SJ-11-01 4.4 18:49:42 10° SSE 18:54:17 54° ENE 18:58:52 10° N
Cosmos 1464 Rocket 4.0 18:49:11 10° S 18:55:08 57° E 19:01:12 10° NNE
CZ-2C R/B 3.2 18:49:59 10° SSE 18:55:21 71° ENE 19:01:01 10° N
Cosmos 1674 3.7 18:52:34 10° NNE 18:55:55 27° ENE 18:59:14 10° SE
Cosmos 1782 Rocket 4.2 18:51:37 10° SSW 18:56:00 62° WNW 19:00:27 10° N
GP-B 4.4 18:52:37 10° N 18:56:53 46° W 19:01:06 10° SSW
Okean-O 3.1 18:52:38 10° S 18:57:03 67° WSW 19:01:29 10° NNW
MOS 1 Rocket 3.6 18:59:02 10° NNE 19:03:07 37° E 19:07:05 10° SSE
FREGAT/IRIS 4.4 19:04:41 12° ENE 19:04:45 12° ENE 19:05:52 10° NE
In-Cosmos 22 4.1 19:04:52 10° N 19:10:13 83° E 19:15:37 10° SSE
ARGOS 3.2 19:05:44 10° SSE 19:10:58 57° ENE 19:16:15 10° N
Cosmos 1048 Rocket 4.1 19:05:50 10° NNW 19:11:12 87° ENE 19:16:34 10° SSE
CZ-2C R/B 3.5 19:08:31 10° NE 19:13:17 28° E 19:18:03 10° SSE
Cosmos 1733 4.5 19:13:48 12° SE 19:16:14 21° E 19:19:08 10° NE
Cosmos 2151 Rocket 3.6 19:12:25 10° S 19:16:50 63° E 19:21:18 10° NNE
Lacrosse 5 rocket 3.1 19:13:08 10° NW 19:16:51 27° N 19:20:41 10° ENE
NOSS 3-2 (A) 4.3 19:10:08 10° NW 19:17:36 72° SW 19:26:01 10° SSE
HJ-1C 3.3 19:14:31 10° SSE 19:17:48 88° E 19:21:08 10° NNW
DMSP B5D1-3 4.4 19:12:54 10° NNE 19:18:02 78° ESE 19:23:08 10° S
Cosmos 2082 Rocket 3.7 19:14:14 10° N 19:18:16 20° NE 19:21:17 13° ENE
NOSS 2-2 (C) 4.3 19:15:09 10° WSW 19:18:35 45° NW 19:22:31 10° NNE
BREEZE-M DEB (TANK) 3.3 19:18:18 10° W 19:21:08 50° SSW 19:27:36 13° SE
Cosmos 1891 Rocket 4.5 19:15:14 10° S 19:21:21 89° WNW 19:27:25 10° N
BREEZE-M R/B 4.5 19:08:42 10° WSW 19:21:53 60° SSE 19:24:25 19° E
Cosmos 494 Rocket 4.0 19:18:41 10° NNW 19:23:59 75° ENE 19:29:15 10° SSE
ATLAS 5 CENTAUR R/B 4.3 19:22:30 10° WNW 19:25:34 29° SW 19:33:08 10° SSE
Meteor 1-15 Rocket 4.3 19:22:01 10° S 19:27:32 56° E 19:33:10 10° NNE
Cosmos 1805 3.7 19:24:22 10° SSE 19:28:00 38° E 19:31:40 10° NNE
OBJECT-B 2.4 19:28:48 19° ENE 19:28:48 19° ENE 19:31:04 10° NNE
Milstar 3 Cent rocket 4.5 19:27:48 10° SSW 19:29:28 11° S 19:30:58 10° SSE
SL-08 RB Rocket 3.7 19:28:20 10° SSE 19:32:50 62° ENE 19:37:19 10° N
Ariane Rocket 3.1 19:28:05 11° SE 19:32:50 53° ENE 19:37:48 10° N
H-2A R/B 2.2 19:29:15 10° S 19:34:14 74° WSW 19:39:25 10° NNW
Cosmos 1269 Rocket 4.2 19:30:39 10° NNW 19:35:53 55° ENE 19:39:33 19° SE
USA 116 4.3 19:32:39 10° N 19:36:14 58° WNW 19:40:16 10° SSW
Nadezhda 4 Rocket 4.0 19:31:19 10° N 19:37:29 88° W 19:43:37 10° S
KORONAS-FOTON 3.7 19:33:38 10° N 19:37:35 76° E 19:41:30 10° SSE
Cosmos 1626 2.7 19:37:50 10° N 19:41:17 36° ENE 19:42:02 32° ESE
Cosmos 2263 Rocket 4.4 19:37:38 10° W 19:42:13 25° NW 19:46:51 10° N
USA 186 1.7 19:42:34 25° SSE 19:44:17 71° ENE 19:47:34 10° N
MetOp-A 4.3 19:40:20 17° SE 19:44:22 55° ENE 19:49:37 10° N
COSMOS 2406 3.5 19:39:24 10° NNW 19:44:57 50° NE 19:47:55 26° ESE
Cosmos 1844 Rocket 2.8 19:40:27 10° SSW 19:46:01 78° WNW 19:51:40 10° NNE
ISS -3.1 19:43:01 10° W 19:46:19 50° N 19:47:46 28° NE
Cosmos 2278 Rocket 3.2 19:45:48 10° SSE 19:51:32 25° E 19:55:05 10° NE
Lacrosse 4 Rocket 2.7 19:48:56 10° NNW 19:52:16 24° NE 19:52:52 23° ENE
IRS-1A Rocket 4.3 19:47:47 10° SSE 19:53:40 80° ENE 19:59:30 10° NNW
Cosmos 1844 3.7 19:47:59 10° SSW 19:53:42 84° WNW 19:59:22 10° NNE
Meteor 2-5 Rocket 3.7 19:50:01 10° N 19:55:43 77° ENE 20:00:46 14° SSE
NOSS 3-2 (C) 4.4 19:48:26 10° NW 19:55:52 67° SW 20:03:38 12° SSE
Cosmos 2034 Rocket 4.2 19:49:56 10° SSW 19:56:17 74° W 20:02:38 10° N
Meteor 1-24 Rocket 3.7 19:52:29 10° N 19:58:02 63° ENE 20:01:37 23° SSE
Exosat Rocket 3.4 19:52:50 10° SSW 19:58:11 84° ESE 20:03:14 10° NNE
Okean 1 Rocket 3.0 19:56:03 10° S 20:00:32 83° E 20:05:04 10° N
NOSS 3-4 (A) 3.3 19:55:13 10° SSW 20:01:00 60° ESE 20:07:12 10° NE
NOSS 3-4 (C) 3.4 19:55:20 10° SSW 20:01:07 59° ESE 20:07:18 10° NE
SL-14 R/B 3.3 19:57:23 10° N 20:01:17 55° ENE 20:01:55 48° ESE
Meteor 2-13 Rocket 4.4 19:55:21 10° N 20:01:33 87° W 20:07:41 10° S
Resurs 01 Rocket 2.4 20:03:26 33° ENE 20:03:36 33° ENE 20:07:36 10° N
Cosmos 1766 3.2 20:05:48 10° S 20:09:43 88° W 20:13:43 10° N
Cosmos 1833 Rocket 2.8 20:04:29 10° NNW 20:10:06 57° ENE 20:11:54 40° ESE
Cosmos 2251 Rocket 4.2 20:08:02 10° N 20:13:00 36° ENE 20:13:44 35° ENE
Abrixas rocket 3.7 20:11:32 10° W 20:13:27 25° SW 20:13:27 25° SW
CENTAUR R/B 3.7 20:06:43 10° NW 20:14:37 58° WSW 20:22:00 15° SSE
CREW DRAGON DEMO-1 DEB 4.5 20:13:46 10° W 20:16:08 27° SW 20:16:08 27° SW
ARIANE 5 R/B 3.9 20:20:05 26° NE 20:20:05 26° NE 20:22:53 10° N
SPOT 3 Rocket 3.5 20:20:50 47° SE 20:22:11 67° ENE 20:27:19 10° N
ATLAS 2AS CENTAUR R/B 2.9 20:15:45 10° SSW 20:23:41 76° SE 20:31:33 10° NE
Cosmos 1634 Rocket 3.9 20:17:41 10° S 20:23:52 85° E 20:30:07 10° N
SJ-6B 3.4 20:24:09 35° SSW 20:25:24 52° W 20:29:08 10° NNW
Resurs 1-3 3.5 20:26:18 67° SE 20:26:50 81° ENE 20:31:15 10° NNW
ATLAS 3B R/B 2.7 20:20:21 10° NW 20:27:14 79° NE 20:29:50 42° SE
Cosmos 1892 Rocket 3.3 20:24:03 10° N 20:28:25 79° E 20:28:35 77° ESE
Cosmos 1655 Rocket 4.1 20:30:48 10° N 20:36:59 56° ENE 20:37:50 52° ESE
Cosmos 2026 Rocket 4.4 20:35:49 10° NNW 20:42:06 64° W 20:46:52 18° S
Cosmos 1340 Rocket 3.5 20:50:42 53° WNW 20:50:42 53° WNW 20:54:33 10° N
CRYOSAT 2 4.5 20:47:06 10° N 20:51:20 64° NNE 20:51:20 64° NNE
CZ-2C R/B 3.5 20:48:25 10° N 20:53:48 51° WNW 20:59:12 10° SW
Lacrosse 5 rocket 2.5 20:52:36 10° NW 20:56:20 42° N 20:56:20 42° N
Cosmos 2180 Rocket 4.4 20:57:17 64° SSE 20:58:14 78° E 21:04:36 10° NNE
MetOp-B 4.1 20:58:51 73° NE 20:58:51 73° NE 21:03:57 10° NNW
Cosmos 2279 Rocket 4.0 20:57:29 35° SSW 21:00:20 83° W 21:06:40 10° N
OBJECT-B 3.2 21:01:59 23° WNW 21:01:59 23° WNW 21:03:47 10° NNW
Cosmos 2098 Rocket 3.7 20:54:41 10° N 21:01:29 81° E 21:01:45 78° ESE
Cosmos 2082 Rocket 2.1 20:57:36 10° NNW 21:03:08 81° NE 21:03:08 81° NE
Spot 2 Rocket 4.1 21:05:26 47° NNE 21:05:26 47° NNE 21:09:16 10° N
Terra 3.8 21:21:44 21° NNE 21:21:44 21° NNE 21:23:36 10° N
ISS -0.6 21:20:07 10° WNW 21:20:44 14° WNW 21:20:44 14° WNW
SPOT 1/Viking Rocket 4.3 21:29:22 48° N 21:29:22 48° N 21:33:03 10° NNW
Lacrosse 4 Rocket 3.4 21:27:13 10° NW 21:29:10 25° NW 21:29:10 25° NW
Cosmos 2278 Rocket 2.7 21:28:36 10° SW 21:34:10 56° WNW 21:39:45 10° NNE
Resurs 01 Rocket 3.5 21:41:00 27° WNW 21:41:00 27° WNW 21:44:02 10° NNW
Cosmos 2266 Rocket 4.3 21:39:45 10° NNW 21:45:08 60° WNW 21:45:08 60° WNW
Cosmos 1833 Rocket 4.3 21:49:02 10° NW 21:53:36 26° WSW 21:53:36 26° WSW
ATLAS 2AS CENTAUR R/B 4.1 22:07:53 10° W 22:15:21 41° NNW 22:22:39 10° NE
ATLAS 3B R/B 4.2 22:11:45 10° WNW 22:17:06 27° WSW 22:17:06 27° WSW
